sat.trackr.live / text

‹ back to catalog

STARLINK-33565

NORAD 62288 · 2024-237X

PAYLOAD ACTIVE UNKNOWN

§ Identity

Operator
Country
US
Launch date
2024-12-08
Launch site
AFETR
Launch vehicle
Mass (kg)
RCS (m²)

Purposes: comms

External: N2YO · Heavens-Above · Gunter

§ Orbital elements

Epoch: 2026-09-21T03:17:05.047008Z

Period
94.27 min
Inclination
42.9993°
Eccentricity
0.0002272
Mean motion
15.27583583 rev/d
Perigee alt
481.5 km
Apogee alt
484.6 km
Semi-major
6,861.2 km
B*
4.0905e-4
RAAN
181.2746°
Arg perigee
251.3822°
Mean anomaly
108.6783°
Rev number
10,121

§ Raw data

STARLINK-335651 62288U 24237X   26264.13686397  .00011012  00000+0  40905-3 0  99922 62288  42.9993 181.2746 0002272 251.3822 108.6783 15.27583583101214

JSON: /api/v1/satellites/62288 · /tle

For live sub-satellite position, see the globe view (requires WebGL).

§ Visibility from observer

Set your observer location to see the next 7 days of passes ≥ 10°. The values pass through the URL so the page stays shareable.

No JS? Fill the form by hand. The geolocation button needs JavaScript.